Weather History for KCGS - March, 2013

Change the Weather History Date:

Sunday, March 31, 2013

  Actual Average Record
Temperature  
Mean Temperature 48 °F -  
Max Temperature 59 °F 60 °F 86 °F (1986)
Min Temperature 38 °F 42 °F 22 °F (1964)
Degree Days  
Heating Degree Days 16    
Moisture  
Dew Point 43 °F    
Average Humidity 82    
Maximum Humidity 100    
Minimum Humidity 56    
Precipitation  
Precipitation 0.00 in - - ()
Sea Level Pressure  
Sea Level Pressure 29.93 in    
Wind  
Wind Speed 1 mph (SSW)    
Max Wind Speed 9 mph    
Max Gust Speed 20 mph    
Visibility 9 miles    
Events      
Averages and records for this station are not official NWS values.
T = Trace of Precipitation, MM = Missing Value Source: NWS Daily Summary

Daily Weather History Graph

Daily Weather History Graph

Search for Another Location

Airport or City:

Trip Planner

Search our weather history database for the weather conditions in past years. The results will help you decide how hot, cold, wet, or windy it might be!

Date:

Astronomy

Mar. 31, 2013 Rise Set
Actual Time 6:53 AM EDT 7:30 PM EDT
Civil Twilight 6:26 AM EDT 7:57 PM EDT
Nautical Twilight 5:54 AM EDT 8:29 PM EDT
Astronomical Twilight 5:22 AM EDT 9:01 PM EDT
Moon No Moon Rise 9:41 AM EDT (3/31)
Length of Visible Light 13h 30m
Length of Day
12h 37m
Waning Gibbous, 78% of the Moon is Illuminated
Mar 31
Waning Gibbous
Apr 3
Last Quarter
Apr 10
New
Apr 18
First Quarter
Apr 25
Full

Hourly Weather History & Observations

Time (EDT) Temp. Dew Point Humidity Pressure Visibility Wind Dir Wind Speed Gust Speed Precip Events Conditions
12:10 AM 41.2 °F 37.8 °F 88% 30.14 in 10.0 mi Calm Calm - N/A   Clear
12:30 AM 41.2 °F 36.7 °F 84% 30.13 in 10.0 mi Calm Calm - N/A   Clear
12:55 AM 40.8 °F 33.6 °F 76% 30.13 in 10.0 mi Calm Calm - N/A   Clear
1:15 AM 41.0 °F 33.4 °F 74% 30.13 in 10.0 mi Calm Calm - N/A   Clear
1:35 AM 40.3 °F 34.3 °F 79% 30.12 in 10.0 mi Calm Calm - N/A   Clear
1:55 AM 40.5 °F 32.9 °F 74% 30.12 in 10.0 mi Calm Calm - N/A   Clear
2:15 AM 40.1 °F 34.3 °F 80% 30.12 in 10.0 mi Calm Calm - N/A   Clear
2:35 AM 40.8 °F 33.6 °F 76% 30.11 in 10.0 mi Calm Calm - N/A   Clear
2:55 AM 40.1 °F 33.8 °F 78% 30.11 in 10.0 mi Calm Calm - N/A   Clear
3:15 AM 40.5 °F 34.7 °F 80% 30.10 in 10.0 mi Calm Calm - N/A   Clear
3:35 AM 40.1 °F 34.2 °F 79% 30.09 in 10.0 mi Calm Calm - N/A   Clear
3:55 AM 39.6 °F 35.2 °F 85% 30.08 in 10.0 mi Calm Calm - N/A   Clear
4:15 AM 39.7 °F 33.8 °F 79% 30.08 in 10.0 mi Calm Calm - N/A   Clear
4:35 AM 39.6 °F 34.2 °F 81% 30.08 in 10.0 mi Calm Calm - N/A   Clear
4:55 AM 38.7 °F 34.2 °F 84% 30.07 in 10.0 mi Calm Calm - N/A   Clear
5:15 AM 39.4 °F 33.4 °F 79% 30.06 in 10.0 mi Calm Calm - N/A   Clear
5:35 AM 39.6 °F 33.6 °F 79% 30.06 in 10.0 mi Calm Calm - N/A   Clear
5:55 AM 39.9 °F 34.3 °F 80% 30.04 in 10.0 mi Calm Calm - N/A   Clear
6:15 AM 40.3 °F 33.3 °F 76% 30.04 in 10.0 mi Calm Calm - N/A   Clear
6:35 AM 41.0 °F 32.9 °F 73% 30.04 in 10.0 mi Calm Calm - N/A   Clear
6:55 AM 40.5 °F 34.2 °F 78% 30.04 in 10.0 mi Calm Calm - N/A   Clear
7:15 AM 40.3 °F 35.6 °F 83% 30.04 in 10.0 mi Calm Calm - N/A   Clear
7:35 AM 40.5 °F 34.2 °F 78% 30.04 in 10.0 mi Calm Calm - N/A   Clear
7:55 AM 41.2 °F 37.0 °F 85% 30.04 in 10.0 mi Calm Calm - N/A   Clear
8:15 AM 42.4 °F 36.9 °F 81% 30.03 in 10.0 mi Calm Calm - N/A   Clear
8:35 AM 43.2 °F 38.7 °F 84% 30.03 in 10.0 mi Calm Calm - N/A   Scattered Clouds
8:55 AM 44.8 °F 39.6 °F 82% 30.02 in 10.0 mi Calm Calm - N/A   Overcast
9:15 AM 46.4 °F 39.6 °F 77% 30.01 in 10.0 mi Calm Calm - N/A   Overcast
9:25 AM 46.6 °F 40.1 °F 78% 30.01 in 10.0 mi Calm Calm - N/A   Overcast
9:55 AM 47.8 °F 40.5 °F 76% 29.99 in 10.0 mi Calm Calm - N/A   Overcast
10:15 AM 48.9 °F 41.4 °F 75% 29.98 in 10.0 mi Calm Calm - N/A   Overcast
10:35 AM 52.2 °F 42.1 °F 69% 29.96 in 10.0 mi East 3.5 mph - N/A   Mostly Cloudy
10:55 AM 54.7 °F 41.7 °F 62% 29.96 in 10.0 mi South 4.6 mph - N/A   Mostly Cloudy
11:15 AM 55.4 °F 41.9 °F 60% 29.96 in 10.0 mi ESE 3.5 mph - N/A   Mostly Cloudy
11:35 AM 55.4 °F 42.4 °F 62% 29.94 in 10.0 mi Calm Calm - N/A   Mostly Cloudy
11:55 AM 57.4 °F 43.0 °F 59% 29.93 in 10.0 mi Calm Calm - N/A   Overcast
12:15 PM 59.4 °F 43.7 °F 56% 29.91 in 10.0 mi South 8.1 mph 17.3 mph N/A   Overcast
12:35 PM 59.0 °F 44.4 °F 58% 29.90 in 10.0 mi South 6.9 mph 19.6 mph N/A   Overcast
12:55 PM 58.3 °F 44.4 °F 60% 29.89 in 10.0 mi South 8.1 mph - N/A   Overcast
1:35 PM 56.3 °F 48.2 °F 74% 29.86 in 10.0 mi Calm Calm - N/A   Overcast
1:55 PM 56.5 °F 47.7 °F 72% 29.84 in 10.0 mi SSE 4.6 mph - N/A   Overcast
2:15 PM 56.8 °F 47.5 °F 71% 29.83 in 10.0 mi SE 9.2 mph - N/A   Overcast
2:35 PM 55.4 °F 49.1 °F 79% 29.82 in 7.0 mi SSE 9.2 mph - N/A   Overcast
2:55 PM 54.0 °F 51.1 °F 90% 29.81 in 3.0 mi SSE 4.6 mph - N/A   Overcast
3:15 PM 53.6 °F 52.5 °F 96% 29.79 in 2.5 mi SE 4.6 mph - N/A   Overcast
3:35 PM 53.6 °F 53.2 °F 99% 29.78 in 3.0 mi SSE 3.5 mph - N/A   Overcast
3:55 PM 53.8 °F 53.6 °F 99% 29.79 in 4.0 mi SSE 3.5 mph - N/A   Overcast
4:15 PM 53.8 °F 53.6 °F 99% 29.78 in 4.0 mi South 3.5 mph - N/A   Overcast
4:35 PM 53.8 °F 53.8 °F 100% 29.78 in 5.0 mi SSW 3.5 mph - N/A   Overcast
4:55 PM 54.5 °F 53.4 °F 96% 29.77 in 10.0 mi SSW 3.5 mph - N/A   Overcast
5:15 PM 54.5 °F 52.9 °F 94% 29.77 in 10.0 mi SW 6.9 mph - N/A   Overcast
5:35 PM 54.5 °F 53.1 °F 95% 29.76 in 10.0 mi SW 4.6 mph - N/A   Overcast
5:55 PM 54.5 °F 52.9 °F 94% 29.77 in 7.0 mi SW 3.5 mph - N/A   Overcast
6:15 PM 54.5 °F 52.9 °F 94% 29.76 in 10.0 mi SSW 5.8 mph - N/A   Overcast
6:35 PM 54.5 °F 52.7 °F 94% 29.76 in 10.0 mi SW 4.6 mph - N/A   Overcast
6:55 PM 54.7 °F 52.3 °F 92% 29.76 in 10.0 mi SW 3.5 mph - N/A   Overcast
7:15 PM 54.9 °F 51.8 °F 89% 29.77 in 10.0 mi SW 8.1 mph - N/A   Overcast
7:35 PM 54.7 °F 51.1 °F 88% 29.76 in 10.0 mi SW 3.5 mph - N/A   Overcast
7:55 PM 54.5 °F 50.9 °F 88% 29.76 in 10.0 mi SW 6.9 mph - N/A   Overcast
8:15 PM 53.6 °F 50.2 °F 88% 29.77 in 10.0 mi WSW 4.6 mph - N/A   Mostly Cloudy
8:35 PM 53.1 °F 50.2 °F 90% 29.77 in 10.0 mi West 4.6 mph - N/A   Mostly Cloudy
8:55 PM 52.7 °F 50.0 °F 91% 29.78 in 10.0 mi WSW 3.5 mph - N/A   Mostly Cloudy
9:15 PM 52.9 °F 50.2 °F 91% 29.78 in 10.0 mi WSW 3.5 mph - N/A   Mostly Cloudy
9:35 PM 52.9 °F 50.0 °F 90% 29.79 in 10.0 mi SSW 3.5 mph - N/A   Mostly Cloudy
9:55 PM 52.9 °F 50.0 °F 90% 29.79 in 10.0 mi South 3.5 mph - N/A   Overcast
10:15 PM 52.7 °F 50.0 °F 91% 29.80 in 10.0 mi Calm Calm - N/A   Overcast
10:35 PM 52.9 °F 50.0 °F 90% 29.79 in 10.0 mi Calm Calm - N/A   Overcast
11:15 PM 52.2 °F 50.0 °F 92% 29.79 in 10.0 mi Calm Calm - N/A   Scattered Clouds
11:35 PM 50.2 °F 48.7 °F 95% 29.79 in 7.0 mi Calm Calm - N/A   Scattered Clouds
11:55 PM 47.7 °F 47.7 °F 100% 29.79 in 4.0 mi Calm Calm - N/A   Clear